Location: Unspecified
(0.0000°N, 0.0000°E)
Time: 09:47:26
(UTC+00:00)

Kosmos-1429 - Pass Details

Date: 27 February 2024
Orbit: 1466 x 1518 km, 74.0° (Epoch: 13 April)

Event Time Altitude Azimuth Distance (km) Brightness Sun altitude
Rises 04:42:16 0° 161° (SSE) 4,579 ? -22.4°
Reaches altitude 10° 04:46:19 10° 144° (SE) 3,603 ? -21.4°
Maximum altitude 04:52:04 19° 102° (ESE) 2,944 ? -20.0°
Drops below altitude 10° 04:57:49 10° 60° (ENE) 3,618 ? -18.5°
Sets 05:01:49 0° 44° (NE) 4,604 ? -17.6°
